www.pogodaiklimat.ru
ПОГОДА в Кулидже
Время
и дата
05:30 07.02
05:55 07.02
06:15 07.02
06:35 07.02
06:55 07.02
07:15 07.02
07:35 07.02
07:55 07.02
08:15 07.02
08:35 07.02
08:55 07.02
09:15 07.02
09:35 07.02
09:55 07.02
10:15 07.02
10:35 07.02
10:55 07.02
11:15 07.02
11:35 07.02
11:55 07.02
12:15 07.02
12:35 07.02
12:55 07.02
13:15 07.02
13:35 07.02
13:55 07.02
14:15 07.02
14:35 07.02
14:55 07.02
15:15 07.02
15:35 07.02
15:55 07.02
16:15 07.02
16:35 07.02
16:55 07.02
17:15 07.02
17:35 07.02
17:55 07.02
18:15 07.02
18:35 07.02
18:55 07.02
19:15 07.02
19:35 07.02
19:55 07.02
20:15 07.02
20:35 07.02
20:55 07.02
21:15 07.02
Ветер
(напр.,м/с)
Видим. Явления Облачность Т
(С)
Тd
(С)
f
(%)
Тe
(С)
Тes
(С)
Комфортность P
(гПа)
Po
(гПа)
Тmin
(С)
Tmax
(С)
R
(мм)
R24
(мм)
S
(см)
ЮВ 4 16 км ясно +1.0 -1.0 86 -4 -4 964.4
ЮВ 3 16 км ясно +1.0 -1.0 86 -3 -3 964.7
В 3 16 км ясно +2.0 -2.0 75 -2 -2 964.7
ЮВ 3 16 км ясно +1.0 -2.0 80 -3 -3 965.1
ЮВ 3 16 км ясно +1.0 -2.0 80 -3 -3 965.4
Ю 2 14 км ясно +1.0 -2.0 80 -2 -2 965.7
Ю 3 16 км ясно +1.0 -1.0 86 -3 -3 966.0
Ю 3 16 км ясно +3.0 -1.0 75 -1 -1 966.0
штиль 0 16 км ясно +4.0 -1.0 70 +3 +4 966.3
штиль 0 16 км ясно +6.0 0.0 65 +5 +6 966.7
штиль 0 16 км ясно +7.0 0.0 61 +7 +8 966.7
штиль 0 16 км ясно +8.0 -1.0 53 +8 +12 966.7
штиль 0 16 км ясно +9.0 -2.0 46 +9 +13 967.0
штиль 0 16 км ясно +9.0 -3.0 43 +9 +13 967.0
штиль 0 16 км ясно +10.0 -2.0 43 +10 +18 967.0
штиль 0 16 км ясно +11.0 -1.0 43 +11 +19 967.0
СЗ 3 16 км ясно +11.0 -1.0 43 +10 +14 967.0
Ю 2 16 км ясно +12.0 0.0 44 +11 +20 967.0
нст 2 16 км ясно +13.0 -1.0 38 +13 +21 967.0
штиль 0 16 км ясно +13.0 -3.0 33 +13 +24 опасность
простуды
966.7
СЗ 3
{6}
16 км ясно +15.0 -4.0 27 +15 +23 966.3
С 4 16 км ясно +15.0 -5.0 25 +14 +21 966.0
С 6
{8}
16 км ясно +15.0 -5.0 25 +14 +17 965.7
СЗ 6 16 км ясно +16.0 -5.0 23 +15 +19 965.4
С 5
{8}
16 км ясно +16.0 -5.0 23 +15 +20 965.1
С 5
{8}
16 км ясно +16.0 -6.0 22 +15 +20 965.1
СЗ 5
{9}
16 км ясно +17.0 -6.0 20 +16 +21 964.7
СЗ 4
{7}
16 км ясно +17.0 -5.0 22 +17 +22 964.7
СЗ 6 16 км ясно +17.0 -6.0 20 +16 +19 964.7
СЗ 5 16 км ясно +17.0 -5.0 22 +16 +19 964.7
СЗ 5 16 км ясно +17.0 -5.0 22 +16 +19 964.4
СЗ 5 16 км ясно +17.0 -5.0 22 +16 +19 964.4
СЗ 5 16 км ясно +17.0 -6.0 20 +16 +18 964.4
СЗ 5 16 км ясно +17.0 -5.0 22 +16 +18 964.4
СЗ 3 16 км ясно +17.0 -5.0 22 +17 +19 964.4
З 3 16 км ясно +17.0 -3.0 25 +17 +17 964.4
З 3 16 км ясно +16.0 -2.0 29 +16 +16 964.7
З 3 16 км ясно +15.0 -3.0 29 +15 +15 964.7
З 3 16 км ясно +13.0 -3.0 33 +12 +12 964.7
З 3 16 км ясно +12.0 -2.0 38 +11 +11 965.1
ЮЗ 3 16 км ясно +12.0 -3.0 35 +11 +11 965.1
ЮЗ 2 16 км ясно +12.0 -4.0 32 +12 +12 965.4
Ю 2 16 км ясно +11.0 -4.0 35 +10 +10 965.4
Ю 2 16 км ясно +10.0 -3.0 40 +9 +9 965.7
Ю 2 16 км ясно +9.0 -2.0 46 +8 +8 965.7
Ю 2 16 км ясно +9.0 -2.0 46 +8 +8 966.0
ЮВ 3 16 км ясно +9.0 -2.0 46 +7 +7 966.0
ЮВ 3 16 км ясно +8.0 -2.0 49 +6 +6 966.3
Местоположение метеостанции Coolidge-Randolph Municipal Airport: широта 32.9359 долгота -111.4265 высота над уровнем моря 477 м.
В архиве по умолчанию представлена погода в Кулидже за последние 1-2 суток. Обновление информации о фактической погоде в базе происходит ежечасно! Архивные данные за месяц целиком и за предыдущие месяцы Вы можете получить, выбрав интересующий диапазон дат из раскрывающегося списка и нажав кнопку "Ввод!".
Внимание! Архив погоды МЕТАР в базе сайта по станциям, не включенным в климатический монитор, хранится не более 60 дней. Нет смысла пытаться выбрать более раннюю дату.
*Определитесь, кто Вы:
Внимание! Время в таблицах - местное (без учета летнего времени). Для получения всемирного времени необходимо вычесть поправку, которая равна -7 ч.
Смотрите также архив погоды в соседних городах и на ближайших метеорологических станциях:
Партнеры нашего сайта:      
Пояснения к столбцам:
  • Ветер - указаны скорость ветра в м/с - средняя за 10 мин, порывы в срок и между сроками (в фигурных скобках) и направление, откуда дует ветер: С - северный,
  • СВ - северо-восточный, В - восточный, ЮВ - юго-восточный, Ю - южный, ЮЗ - юго-западный, З - западный, СЗ - северо-западный.
  • Видимость - горизонтальная дальность видимости в метрах или километрах. При видимости от 1 до 10 км при отсутствии осадков обычно наблюдается дымка, при ухудшении видимости до 1 км и менее - туман. В сухую погоду видимость может ухудшаться дымом, пылью или мглою.
  • Явления - указаны атмосферные явления, наблюдавшиеся в срок или в последний час перед сроком; фигурными скобками обозначены явления, наблюдавшиеся между сроками (за 1-3 часа до срока); квадратными скобками обозначены град или гололедные отложения с указанием их диаметра в мм.
  • Облачность - указаны через наклонную черту общая и нижняя облачность в баллах и высота нижней границы облаков в метрах; квадратными скобками обозначены формы облаков: Ci - перистые, Cs - перисто-слоистые, Cc - перисто-кучевые, Ac - высококучевые, As - высокослоистые, Sc - слоисто-кучевые, Ns - слоисто-дождевые, Cu - кучевые, Cb - кучево-дождевые. Подробнее классификацию облаков см. в Атласе облаков (PDF).
  • T - Температура воздуха - температура, измеренная на высоте 2 м над землей.
  • Td - Температура точки росы - температура, при понижении до которой содержащийся в воздухе водяной пар достигнет насыщения.
  • f - Относительная влажность воздуха - влажноcть воздуха, измеренная на высоте 2 м над землей.
  • Te - Эффективная температура - температура, которую ощущает одетый по сезону человек в тени. Характеристика душности погоды. При расчете учитывается влияние влажности воздуха и скорости ветра на теплоощущения человека.
  • Tes - Эффективная температура на солнце - температура, которую ощущает человек, с поправкой на солнечный нагрев. Характеристика знойности погоды. Зависит от высоты солнца над горизонтом, облачности и скорости ветра. Ночью, в пасмурную погоду, а также при ветре 12 м/с и более поправка равна нулю.
  • P - Атмосферное давление - приведенное к уровню моря атмосферное давление.
  • Po - Атмосферное давление - измеренное на уровне метеостанции атмосферное давление.
  • Tmin - Минимальная температура - минимум температуры воздуха на высоте 2 м над землей.
  • Tmax - Максимальная температура - максимум температуры воздуха на высоте 2 м над землей.
  • R - Количество осадков - Количество выпавших осадков за период времени, мм. При наведении курсора мыши на число - период времени, за который выпало указанное количество осадков.
  • R24 - Количество осадков - Количество выпавших осадков за 24 часа, мм.
  • S - Снежный покров - Высота снежного покрова, см. При наведении курсора мыши на число - состояние снежного покрова и степень покрытия местности в баллах.